User: anonymous   Login
Location: Mentone
(34.5413°N, 85.5351°W)
Time: 08:45:47
(UTC-05:00)
Language:

ADEOS Rocket - Orbit

View from above orbital plane
View from above orbital plane
View from above satellite
View from above satellite

Ground track
Ground track

The orbit data is extracted from the following two-line orbital elements,

1 24279U 96046C   17177.80735677 -.00000022 +00000-0 +21188-4 0  9994
2 24279 098.7533 120.5762 0298979 264.2159 120.9233 13.47085365025545
Epoch (UTC): 26 June 2017 19:22:35
Eccentricity: 0.0298979
inclination: 98.7533°
perigee height: 860 km
apogee height: 1306 km
right ascension of ascending node: 120.5762°
argument of perigee: 264.2159°
revolutions per day: 13.47085365
mean anomaly at epoch: 120.9233°
orbit number at epoch: 2554

The dashed part of the orbit path shows where the satellite is in the earth's shadow,  

DLR